Probability
0 0 0 0 0 0 0 0 0 0 0 0 0 0 0 0 0 0 0 0 0 0 0 0 0 0 0 0 0 0 0 0 0 0 1 2 3 3 3 3 2 1 0 0
0 0 0 0 0 0 0 0 0 0 0 0 0 0 0 0 0 0 0 0 0 0 0 0 0 0 0 0 0 0 0 0 0 0 0 1 2 3 3 3 2 1 0 0
0 0 0 0 0 0 0 0 0 0 0 0 0 0 0 0 0 0 0 0 0 0 0 0 0 0 0 0 0 0 0 0 0 0 0 1 2 2 3 2 1 0 0 0
0 0 0 0 0 0 0 0 0 0 0 0 0 0 0 0 0 0 0 0 0 0 0 0 0 0 0 0 0 0 0 0 0 0 1 1 1 2 1 1 0 0 0 0
0 0 0 0 0 0 0 0 0 0 0 0 0 0 0 0 0 0 0 0 0 0 0 0 1 1 0 0 0 0 0 0 0 1 1 1 2 2 1 0 0 0 0 0
0 0 0 0 0 0 0 0 0 0 0 0 0 0 0 0 0 0 0 0 0 0 0 0 1 1 1 1 0 0 0 0 0 1 2 3 2 1 0 0 0 0 0 0
0 0 0 0 0 0 0 0 0 0 0 0 0 0 0 0 0 0 0 0 0 0 0 0 1 1 1 1 0 0 0 0 0 1 2 4 4 2 1 0 0 0 0 0
0 0 0 0 0 0 0 0 0 0 0 0 0 0 0 0 0 0 0 0 0 0 0 0 0 0 1 1 0 0 0 0 0 0 1 3 4 4 2 1 0 1 1 0
0 0 0 0 0 0 0 0 0 0 0 0 0 0 0 0 0 0 0 0 0 0 0 0 0 0 0 0 0 0 0 0 0 0 0 1 2 3 3 1 0 1 1 1
0 0 0 0 0 0 0 0 0 0 0 0 0 0 0 0 0 0 0 0 0 0 0 0 0 0 0 0 0 0 0 0 0 0 0 0 1 3 2 1 0 1 1 0
0 0 0 0 0 0 0 0 0 0 0 0 0 0 0 0 0 0 0 0 0 0 0 0 0 0 0 0 0 0 0 0 0 0 0 0 1 2 2 1 0 0 0 0
0 0 0 0 0 0 0 0 0 0 0 0 0 0 0 0 0 0 0 0 0 0 0 0 0 0 0 0 0 0 0 0 0 0 0 0 0 1 1 0 0 0 0 0
0 0 0 0 0 0 0 0 0 0 0 0 0 0 0 0 0 0 0 0 0 0 0 0 0 0 0 0 0 0 0 0 0 0 0 0 0 0 0 0 0 0 0 0
0 0 0 0 0 0 0 0 0 0 0 0 0 0 0 0 0 0 0 0 0 0 0 0 0 0 0 0 0 0 0 0 0 0 0 0 0 0 0 0 0 0 0 0
0 0 0 0 0 0 0 0 0 0 0 0 0 0 0 0 0 0 0 0 0 0 0 0 0 0 0 0 0 0 0 0 0 0 0 0 0 0 0 0 0 0 0 0
0 0 0 0 0 0 0 0 0 0 0 0 0 0 0 0 0 0 0 0 0 0 0 0 0 0 0 0 0 0 0 0 0 0 0 0 0 0 0 0 0 0 0 0
0 0 0 0 0 0 0 0 0 0 0 0 0 0 0 0 0 0 0 0 0 0 0 0 0 0 0 0 0 0 0 0 0 0 0 0 0 0 0 0 0 0 0 0
0 0 0 0 0 0 0 0 0 0 0 0 0 0 0 0 0 0 0 0 0 0 0 0 0 0 0 0 0 0 0 0 0 0 0 0 0 0 0 0 0 0 0 0
0 0 0 0 0 0 0 0 0 0 0 0 0 0 0 0 0 0 0 0 0 0 0 0 0 0 0 0 0 0 0 0 0 0 0 0 0 0 0 0 0 0 0 0
0 0 0 0 0 0 0 0 0 0 0 0 0 0 0 0 0 0 0 0 0 0 0 0 0 0 0 0 0 0 0 0 0 0 0 0 0 0 0 0 0 0 0 0
0 0 0 0 0 0 0 0 0 0 0 0 0 0 0 0 0 0 0 0 0 0 0 0 0 0 0 0 0 0 0 0 0 0 0 0 0 0 0 0 0 0 0 0
0 0 0 0 0 0 0 0 0 0 0 0 0 0 0 0 0 0 0 0 0 0 0 0 0 0 0 0 0 0 0 0 0 0 0 0 0 0 0 0 0 0 0 0
0 0 0 0 0 0 0 0 0 0 0 0 0 0 0 0 0 0 0 0 0 0 0 0 0 0 0 0 0 0 0 0 0 0 0 0 0 0 0 0 0 0 0 0
0 0 0 0 0 0 0 0 0 0 0 0 0 0 0 0 0 0 0 0 0 0 0 0 0 0 0 0 0 0 0 0 0 0 0 0 0 0 0 0 0 0 0 0
0 0 0 0 0 0 0 0 0 0 0 0 0 0 0 0 0 0 0 0 0 0 0 0 0 0 0 0 0 0 0 0 0 0 0 0 0 0 0 0 0 0 0 0
0 0 0 0 0 0 0 0 0 0 0 0 0 0 0 0 0 0 0 0 0 0 0 0 0 0 0 0 0 0 0 0 0 0 0 0 0 0 0 0 0 0 0 0
Wind_Speed
1 2 3 4 4 2 2 3 5 3 1 3 7 10 9 6 6 7 7 6 6 4 3 1 1 1 2 2 2 1 1 1 1 1 1 1 1 0 0 0 0 1 1 1
3 4 3 1 2 2 3 4 5 3 0 3 6 11 9 7 8 8 8 7 6 4 3 2 2 2 2 2 2 2 1 1 1 1 1 1 1 0 0 0 1 1 1 1
5 0 2 3 3 3 4 6 6 4 2 3 6 9 7 5 6 6 6 6 6 6 5 4 4 3 3 2 2 1 1 1 1 0 1 1 1 1 1 1 1 1 1 1
3 2 3 4 4 5 5 4 4 4 4 3 3 7 5 3 4 6 7 7 7 6 6 5 5 4 4 3 2 2 1 2 1 2 2 2 2 2 2 1 1 1 1 1
3 2 3 5 4 5 2 1 2 4 4 5 5 7 6 2 5 7 7 7 6 6 6 5 5 4 3 3 2 2 2 1 1 2 3 3 2 2 1 1 1 1 1 1
3 2 3 3 1 3 3 2 1 1 3 6 6 8 7 4 6 5 5 5 5 4 5 5 4 3 3 2 2 2 2 2 2 2 2 3 3 2 2 2 2 1 1 1
3 3 2 1 3 3 3 3 2 3 4 6 3 7 9 3 4 4 4 4 4 4 5 5 5 5 4 3 3 2 2 2 2 2 3 3 3 3 4 3 3 2 2 2
5 4 5 3 4 5 6 5 4 5 5 4 4 9 6 2 2 3 2 2 3 4 5 5 5 5 4 4 3 3 3 3 2 2 3 3 3 2 2 3 3 3 3 2
6 4 1 3 2 4 5 5 2 1 2 5 6 6 6 4 4 3 3 3 3 3 4 5 5 4 4 4 4 3 3 3 3 3 3 3 3 3 3 3 3 3 3 2
4 3 2 2 3 1 3 4 4 4 4 7 7 7 6 5 5 4 4 4 4 3 4 4 4 4 4 3 3 3 3 3 3 2 2 2 3 3 3 2 3 3 3 2
3 4 2 3 7 8 6 5 5 4 4 5 7 6 2 5 4 4 5 4 4 4 4 4 4 3 3 3 3 3 3 3 3 2 3 3 2 2 2 2 3 3 3 3
3 3 4 5 1 3 6 7 8 6 6 5 6 7 2 2 2 3 4 3 3 3 3 3 3 3 3 3 3 3 3 3 3 3 3 3 2 2 2 2 2 3 3 3
4 4 2 2 3 3 6 6 7 4 3 6 8 8 2 2 3 3 4 3 3 3 3 2 3 3 3 3 3 3 3 3 3 3 3 3 2 2 3 3 2 2 3 3
3 4 7 9 4 5 7 8 8 8 7 9 13 13 8 7 6 5 4 4 3 3 3 3 3 3 3 3 3 3 3 3 3 3 3 3 3 3 3 3 3 3 2 3
3 4 4 6 5 5 8 11 12 15 14 13 13 14 14 11 8 6 4 4 4 4 4 4 3 3 3 3 3 3 3 2 2 3 3 3 3 3 2 2 2 2 2 3
3 3 2 5 4 5 9 13 15 17 16 17 16 18 13 9 6 6 5 5 5 5 4 4 4 3 3 3 3 2 3 2 2 3 3 3 2 2 2 2 2 2 2 3
5 5 3 5 2 4 12 14 15 13 13 14 18 16 8 7 7 7 6 6 6 5 5 4 4 4 3 3 2 3 3 2 2 3 3 2 2 2 2 2 2 2 2 2
6 4 3 2 2 11 7 2 10 12 13 14 13 10 8 8 6 5 5 6 6 5 5 4 4 3 2 2 2 2 2 2 2 2 2 2 2 3 2 2 2 3 2 2
6 7 4 4 7 12 9 5 7 9 11 11 14 12 7 3 3 5 5 5 6 5 4 3 2 2 2 2 1 1 1 1 2 2 2 2 2 3 3 3 3 3 2 2
3 4 5 5 7 11 6 3 3 4 9 6 9 10 7 4 6 5 2 3 3 2 2 2 1 1 1 1 1 2 1 1 2 2 3 3 2 3 3 3 3 2 2 2
6 6 8 9 10 12 5 3 6 6 6 1 6 7 7 8 6 1 1 1 2 2 1 2 2 1 1 1 1 1 1 2 2 2 2 2 2 3 3 3 2 2 2 2
11 9 9 8 10 12 5 8 9 5 1 2 3 4 5 5 3 2 1 1 2 2 2 2 1 1 1 1 1 1 1 2 2 2 2 2 2 2 2 2 2 2 2 2
10 10 7 11 10 3 6 7 4 2 3 3 3 3 4 4 4 4 3 2 1 1 1 1 1 1 1 1 0 1 1 1 1 1 1 2 2 2 2 2 2 2 1 2
7 4 5 7 10 8 7 7 5 4 4 3 3 3 4 5 5 4 3 2 2 1 1 1 1 1 0 1 1 1 1 1 1 1 1 1 1 2 1 1 1 2 2 2
7 7 6 9 9 6 7 9 8 6 5 4 3 3 4 5 5 4 3 3 2 1 1 1 1 1 1 1 1 1 1 1 1 1 1 1 1 2 2 2 2 2 2 2
7 9 10 10 8 7 7 5 5 6 7 6 5 4 4 5 5 4 3 3 2 2 1 1 1 1 1 0 1 1 1 1 0 1 1 1 1 1 1 1 2 3 3 4
Wind_Direction
95 173 217 226 224 265 233 237 258 270 310 246 248 260 261 244 238 244 242 237 237 241 243 227 200 162 146 123 116 117 117 102 122 162 178 186 197 206 240 271 259 253 253 249
156 225 247 221 185 195 214 246 261 272 323 259 270 271 264 244 237 239 240 235 232 233 223 212 198 176 176 162 153 152 150 158 183 204 200 221 222 219 294 321 318 299 272 264
196 226 178 175 180 205 233 245 255 270 294 249 282 270 246 226 227 236 239 239 234 229 224 212 203 196 189 182 173 165 167 174 188 185 159 140 167 210 229 274 307 326 316 289
219 235 194 197 221 226 247 242 239 249 265 266 270 280 255 222 234 236 235 228 229 224 220 215 207 202 202 195 180 175 183 189 183 187 190 183 200 222 253 265 272 297 304 292
208 204 204 217 231 222 236 101 216 237 247 271 238 254 261 201 248 245 232 226 223 218 215 214 210 207 202 193 191 192 192 199 202 210 209 208 210 216 231 239 245 272 280 279
239 226 233 236 240 191 149 131 126 195 224 252 235 236 260 216 234 243 225 219 218 211 212 213 206 200 194 188 195 206 207 209 217 228 227 222 217 209 214 228 241 253 265 270
238 220 212 181 156 159 183 192 229 224 221 243 173 232 254 229 228 240 233 225 218 210 210 210 204 199 198 198 202 208 221 227 228 233 240 236 228 222 228 229 235 245 251 263
214 229 197 198 203 194 199 208 221 247 255 265 202 240 252 215 262 261 247 230 224 216 212 215 213 206 201 203 206 212 225 235 236 242 253 246 237 230 238 243 244 245 248 254
208 225 149 197 220 190 183 207 238 246 294 270 247 256 269 223 241 234 232 234 232 229 221 219 216 213 208 206 210 217 228 238 241 247 255 258 245 238 241 246 251 252 258 261
193 217 217 196 185 220 237 170 173 202 237 258 263 252 248 220 227 224 232 241 249 241 230 223 217 217 215 215 214 217 227 236 245 252 257 264 258 249 251 245 252 265 267 265
200 192 197 192 206 198 176 186 198 200 235 248 269 260 224 226 211 216 230 243 251 244 233 224 221 219 217 214 213 217 228 238 245 253 260 265 266 253 251 258 257 261 267 264
190 192 223 225 222 265 222 208 192 210 222 231 259 271 98 238 260 249 251 255 254 247 238 229 224 216 215 217 218 221 230 237 244 250 255 258 265 258 251 261 272 273 267 265
160 174 205 210 197 199 223 222 217 222 210 216 234 259 108 265 277 264 257 257 253 252 244 227 220 220 222 225 226 228 233 242 249 250 251 256 260 263 266 269 273 270 269 267
159 195 220 238 247 189 211 217 208 202 219 232 239 258 265 266 269 266 263 258 250 247 240 235 232 228 230 232 232 233 240 244 246 245 246 251 260 265 272 276 273 266 263 262
172 222 234 265 274 238 236 230 215 217 226 235 250 254 263 269 272 271 259 244 241 243 239 236 239 239 236 235 236 238 246 248 243 240 245 254 264 268 270 270 270 267 262 262
169 205 223 262 264 264 259 246 233 233 236 243 258 263 266 275 273 262 246 234 237 239 240 242 241 238 235 233 236 240 247 246 241 240 248 259 265 270 268 269 269 266 263 265
177 168 198 249 296 286 258 232 220 224 225 227 241 253 261 264 256 255 249 237 238 243 243 240 233 228 229 228 232 238 244 242 235 243 253 261 265 265 267 269 267 269 271 272
178 175 207 239 231 244 252 200 214 227 239 231 244 258 254 255 270 269 245 236 242 242 239 236 229 226 222 218 224 229 227 225 231 242 253 258 259 262 265 263 265 273 272 271
195 178 190 206 243 267 272 222 199 214 251 231 236 248 252 257 287 263 234 228 235 235 230 226 222 217 205 200 203 196 206 220 234 250 261 264 260 257 254 254 261 268 268 270
175 178 187 202 232 249 261 167 178 192 258 220 222 238 230 204 248 258 203 204 214 212 198 188 172 170 187 187 174 183 201 221 250 268 274 274 268 259 258 261 267 273 270 273
178 193 208 214 237 259 259 147 159 206 262 186 214 225 214 221 245 300 104 153 163 159 153 143 148 160 178 147 161 191 217 255 286 296 291 283 275 269 267 274 277 278 275 278
188 190 202 200 226 248 168 159 200 237 331 236 226 222 220 230 237 231 212 167 147 139 123 123 130 115 78 101 161 209 252 305 323 314 302 298 293 285 279 278 285 284 269 263
212 207 199 204 224 266 174 207 232 260 241 247 237 235 215 222 225 222 220 207 176 151 134 120 123 97 42 40 356 249 308 345 342 332 315 312 312 303 295 281 281 284 276 265
227 215 213 241 254 252 242 249 251 241 245 252 238 223 208 214 214 210 206 200 184 162 150 135 136 152 318 3 350 315 331 354 350 316 313 317 313 315 318 298 284 272 269 269
213 187 210 242 254 271 253 238 248 251 255 257 254 235 223 215 212 205 196 191 189 177 156 155 177 208 270 356 2 356 351 0 341 315 311 315 313 315 318 313 302 287 285 286
199 196 205 232 229 227 251 251 239 235 241 239 234 242 230 210 208 199 192 183 175 174 163 172 193 212 258 324 332 339 339 333 258 277 300 305 308 316 312 317 331 339 316 322